sat.trackr.live / text

‹ back to catalog

STARLINK-35543

NORAD 66201 · 2025-243AA

PAYLOAD ACTIVE UNKNOWN

§ Identity

Operator
Country
US
Launch date
2025-10-26
Launch site
AFETR
Launch vehicle
Mass (kg)
RCS (m²)

Purposes: comms

External: N2YO · Heavens-Above · Gunter

§ Orbital elements

Epoch: 2026-09-20T21:48:36.183168Z

Period
94.01 min
Inclination
53.1587°
Eccentricity
0.0000506
Mean motion
15.31730512 rev/d
Perigee alt
470.3 km
Apogee alt
471.0 km
Semi-major
6,848.8 km
B*
5.0014e-4
RAAN
56.9909°
Arg perigee
89.7864°
Mean anomaly
270.3196°
Rev number
5,056

§ Raw data

STARLINK-355431 66201U 25243AA  26263.90875212  .00015201  00000+0  50014-3 0  99952 66201  53.1587  56.9909 0000506  89.7864 270.3196 15.31730512 50569

JSON: /api/v1/satellites/66201 · /tle

For live sub-satellite position, see the globe view (requires WebGL).

§ Visibility from observer

Set your observer location to see the next 7 days of passes ≥ 10°. The values pass through the URL so the page stays shareable.

No JS? Fill the form by hand. The geolocation button needs JavaScript.